Regional Weather Roundup
Issued by NWS

Home | Current Version | Previous Version | Graphics & Text | Print | Product List | Glossary On
Versions: 1 2 3 4 5 6 7 8 9 10 11 12 13 14 15 16 17 18 19 20 21 22 23 24 25 26 27 28 29 30 31 32 33 34 35 36 37 38 39 40 41 42 43 44 45 46 47 48 49 50
000
ASUS43 KLMK 151602
RWRKY
KENTUCKY REGIONAL WEATHER ROUNDUP
NATIONAL WEATHER SERVICE LOUISVILLE KY
1200 PM EDT MON SEP 15 2014

NOTE "FAIR" INDICATES FEW OR NO CLOUDS BELOW 12,000 FEET
WITH NO SIGNIFICANT WEATHER AND/OR OBSTRUCTIONS TO VISIBILITY.

KYZ001>023-026-027-061>063-070>075-151700-
WESTERN AND SOUTH CENTRAL KENTUCKY

CITY           SKY/WX    TMP DP  RH WIND       PRES   REMARKS
PADUCAH        CLOUDY    70  57  63 SW5       30.16F
HENDERSON      CLOUDY    70  55  60 SW7       30.17S
OWENSBORO      PTSUNNY   71  56  59 S9        30.16F
HOPKINSVILLE   DRIZZLE   70  59  66 S3        30.18F
BOWLING GREEN  PTSUNNY   70  59  68 CALM      30.19F
GLASGOW        PTSUNNY   71  58  63 CALM      30.18F
$$

KYZ024-025-028>034-038-045-046-053-151700-
NORTH CENTRAL KENTUCKY

CITY           SKY/WX    TMP DP  RH WIND       PRES   REMARKS
LOUISVILLE/SDF PTSUNNY   71  56  58 CALM      30.17F
LOUISVILLE/LOU MOSUNNY   69  56  62 SW5       30.18F
FORT KNOX      MOSUNNY   72  55  53 VRB6      30.17S
$$

KYZ035>037-039>044-047>052-055>060-089>105-151700-
NORTHEAST KENTUCKY

CITY           SKY/WX    TMP DP  RH WIND       PRES   REMARKS
LEXINGTON      MOSUNNY   72  54  53 VRB3      30.19F
COVINGTON      PTSUNNY   68  52  56 S7        30.18F
FRANKFORT      PTSUNNY   68  54  60 S6        30.17F
$$

KYZ054-064>069-076>088-106>120-151700-
SOUTHEAST KENTUCKY

CITY           SKY/WX    TMP DP  RH WIND       PRES   REMARKS
JACKSON        MOSUNNY   68  59  73 CALM      30.20F
LONDON         CLOUDY    71  60  68 W3        30.20F
SOMERSET       NOT AVBL
MIDDLESBORO    CLOUDY    73  63  68 CALM      30.20F
MONTICELLO     CLOUDY    71  63  76 CALM      30.21F
$$




USA.gov is the U.S. government's official web portal to all federal, state and local government web resources and services.